Lid_Strength_Index
2 2 2 2 2 2 2 2 2 1 1 1 1 1 1 1 1 4 7 4 6 -1 -0 7 7 8 7 9 11 11 15 16 15 14 14 14 13 11 10 10 9 9 9 8 8
2 2 2 2 2 2 2 2 2 2 1 1 1 1 1 1 6 7 2 -0 -1 -2 8 8 9 8 10 11 11 12 15 14 12 12 13 13 12 11 10 10 10 9 8 8 8
3 3 2 2 2 2 2 2 2 2 2 1 1 1 1 2 9 7 -1 -2 -2 0 6 7 8 9 11 11 12 13 14 12 12 12 11 11 12 11 11 13 10 10 9 9 9
3 3 3 3 3 2 2 2 2 2 2 2 1 1 1 6 13 8 -2 -2 -2 4 7 7 10 12 13 13 12 11 11 11 11 10 11 11 10 11 11 11 9 9 9 9 9
4 4 4 3 3 2 3 3 2 2 3 2 1 1 6 10 9 5 -3 -2 4 6 8 9 11 13 15 13 12 13 12 11 11 12 12 10 11 11 11 10 9 9 9 9 8
4 4 4 4 4 3 3 3 3 3 3 2 1 1 8 12 6 6 6 6 6 8 9 10 11 11 13 13 13 12 12 12 12 11 12 11 12 11 10 9 9 9 10 8 7
4 4 4 4 4 4 3 3 3 3 3 1 0 2 8 10 6 7 7 8 8 7 8 9 9 10 11 12 11 12 14 12 12 12 12 11 13 12 10 10 10 10 10 8 7
4 4 4 4 4 4 4 4 3 2 2 1 0 6 11 7 6 8 7 7 7 7 7 8 9 11 12 12 11 13 14 16 13 12 11 11 15 11 10 10 10 10 9 7 7
4 5 5 4 4 4 4 4 3 2 1 1 6 9 10 4 7 6 7 8 7 7 7 5 9 12 11 14 15 15 17 17 14 12 12 13 15 11 11 11 11 11 9 7 7
3 4 4 4 4 4 4 4 3 3 2 2 4 11 11 8 7 7 8 7 8 8 9 9 11 13 15 16 18 17 17 16 15 13 13 14 14 12 11 11 10 11 9 8 8
3 3 4 3 3 3 4 8 8 10 8 10 9 10 8 6 6 8 7 7 8 10 14 12 14 15 13 13 14 14 15 15 14 12 13 14 14 13 12 12 12 11 9 8 8
4 3 3 3 3 3 6 7 6 7 10 8 8 7 6 6 8 7 7 10 10 13 12 14 15 12 11 11 12 13 15 15 13 12 13 14 13 12 11 11 11 10 10 8 9
4 3 3 4 4 5 7 5 5 7 10 8 7 8 8 7 8 7 7 9 11 13 13 14 12 10 11 12 13 14 15 15 14 13 13 14 15 13 12 11 10 10 9 8 8
4 4 4 4 8 8 6 4 4 6 13 10 8 7 7 7 9 6 7 9 11 12 12 13 12 12 13 13 12 15 12 13 13 15 17 14 19 15 13 12 11 11 11 8 8
4 3 4 4 9 9 6 5 4 6 18 9 8 6 7 8 8 8 7 9 11 11 12 12 12 13 14 13 11 13 12 13 13 16 17 16 18 17 14 14 12 11 11 9 8
4 4 3 6 8 6 5 4 6 12 17 9 8 9 10 8 8 7 7 7 9 12 12 12 11 11 12 10 11 10 13 13 14 17 20 17 17 18 16 14 11 11 10 9 9
4 4 5 5 8 6 5 7 14 16 9 10 10 8 10 10 9 8 9 11 12 14 15 13 13 11 10 13 12 13 15 20 20 19 20 15 17 17 13 10 9 10 10 9 9
5 5 6 5 6 6 7 10 17 12 11 8 9 9 11 10 10 9 10 12 10 12 14 14 15 12 10 11 13 14 14 18 21 21 19 14 17 14 10 10 10 9 9 9 9
6 10 8 8 7 6 8 15 15 11 9 10 9 11 12 10 10 11 11 11 10 10 13 15 14 9 10 10 11 14 15 13 16 16 19 16 14 11 10 10 10 10 9 9 9
10 11 10 7 8 6 10 12 11 8 8 9 12 11 13 11 12 11 12 9 10 9 10 11 15 10 9 9 11 12 11 15 16 20 21 17 16 16 12 11 10 10 10 9 9
12 13 10 8 8 11 14 12 10 8 8 10 12 12 11 13 12 12 11 9 8 8 9 11 13 12 10 12 12 13 14 14 14 16 19 21 17 12 11 10 10 10 9 9 9
13 17 11 9 14 15 15 13 9 10 9 10 10 11 13 13 12 11 12 10 7 8 11 11 13 15 12 10 8 10 12 12 17 17 17 17 15 10 10 9 9 9 9 10 9
15 14 9 11 18 16 13 12 10 11 11 11 12 12 12 14 16 12 10 8 7 8 10 10 14 18 15 13 10 11 12 12 13 15 16 18 15 10 10 9 9 9 9 9 9
14 17 13 13 13 14 15 14 13 10 11 10 12 11 13 14 13 14 13 10 7 7 6 8 13 14 17 14 12 13 11 12 13 18 14 14 12 12 10 9 9 9 9 9 10
14 16 14 17 15 15 15 14 15 15 12 12 13 13 14 17 15 15 13 12 9 8 9 10 15 13 11 11 11 11 11 11 13 11 15 12 12 11 10 9 8 8 9 9 9
15 15 15 16 14 15 15 16 15 14 14 14 14 13 13 16 15 16 13 13 13 10 12 11 14 13 14 11 11 11 11 11 11 10 11 11 12 9 8 7 9 8 9 9 9
12 12 13 14 16 16 16 15 14 13 13 12 13 13 14 12 10 10 10 11 11 11 12 13 14 14 16 13 13 15 11 10 10 11 11 13 10 8 9 9 9 9 8 9 9